Tracking 29892 objects as of 21-Nov-2024
HD Live streaming from Space Station
objects crossing your sky now

SL-12 R/B(2)

Track SL-12 R/B(2) now!


NORAD ID: 16870
Int'l Code: 1986-007F
Perigee: 36,357.8 km
Apogee: 36,644.2 km
Inclination: 12.0 °
Period: 1,472.4 minutes
Semi major axis: 42871 km
RCS: 2.3779 m2 (large)
Launch date: January 17, 1986
Source: Commonwealth of Independent States (former USSR) (CIS)
Launch site: TYURATAM MISSILE AND SPACE COMPLEX (TTMTR)

Note: This is a ROCKET BODY
Your satellite tracking list
Your tracking list is empty




NASA's NSSDC Master Catalog

Two Line Element Set (TLE):
1 16870U 86007F   24325.32416628 -.00000188  00000-0  00000-0 0  9999
2 16870  11.9758 326.2990 0033401 164.6756 191.1666  0.97800798137023
Source of the keplerian elements: AFSPC